{"data":{"norad_id":52857,"intl_designator":"2022-062AD","name":"STARLINK-4199","alt_names":[],"object_type":"PAYLOAD","status":"ACTIVE","operator":null,"country":"US","launch_date":"2022-06-17","launch_site_code":"AFETR","launch_vehicle":null,"mission":null,"orbit_class":"UNKNOWN","rcs_meters":null,"size_class":null,"mass_kg":null,"dimensions":null,"purposes":["comms"],"wikipedia_slug":null,"has_3d_model":false,"image_url":null,"decayed_at":null,"tle_current":{"epoch":"2026-05-25T02:55:53.639904Z","epoch_age_seconds":67670,"freshness":"FRESH","line1":"1 52857U 22062AD  26145.12214861  .00001306  00000+0  10015-3 0  9991","line2":"2 52857  53.2123  41.0009 0001337  87.8017 272.3128 15.08831691217461","mean_motion":15.08831691,"eccentricity":0.0001337,"inclination_deg":53.2123,"raan_deg":41.0009,"arg_perigee_deg":87.8017,"mean_anomaly_deg":272.3128,"bstar":0.00010015,"rev_number":21746,"period_min":95.438080243769,"perigee_km":538.84386236595,"apogee_km":540.69371037323,"semimajor_km":6917.9057863696,"source":"CELESTRAK","updated_at":"2026-05-25T13:38:17.246545Z"}}}